This demonstration page uses our WeatherBlox Daily Observations layout. Learn more.

Hourly Observations for October 2, 2015

Temp ( °F °C ) Dew Point ( °F °C ) Humidity (%) Winds ( mph kmh ) Pressure ( in mb ) Visibility ( mi km ) Precip ( " mm )
12:15 am 00:15 Partly Cloudy 55 13 40 4.6 57 57 ESE 9 15 30.27 1025 10 16.0934 0 0
12:35 am 00:35 Partly Cloudy 55 12.7 40 4.5 58 58 ESE 10 17 30.27 1025 10 16.0934 0 0
12:55 am 00:55 Clear 55 12.7 40 4.5 58 58 ESE 10 17 30.27 1025 10 16.0934 0 0
1:15 am 01:15 Clear 54 12.2 41 4.8 61 61 ESE 9 15 30.27 1025 10 16.0934 0 0
1:35 am 01:35 Partly Cloudy 54 12.2 40 4.7 60 60 ESE 13 20 30.24 1024 10 16.0934 0 0
1:55 am 01:55 Partly Cloudy 54 12.3 40 4.2 58 58 SE 13 20 30.24 1024 10 16.0934 0 0
2:15 am 02:15 Clear 54 12.2 39 4.1 58 58 SE 10 17 30.27 1025 10 16.0934 0 0
2:35 am 02:35 Clear 54 12 39 4 58 58 ESE 10 17 30.27 1025 10 16.0934 0 0
2:55 am 02:55 Clear 53 11.8 38 3.6 57 57 ESE 9 15 30.27 1025 10 16.0934 0 0
3:15 am 03:15 Clear 53 11.5 39 3.8 59 59 ESE 10 17 30.27 1025 10 16.0934 0 0
3:35 am 03:35 Clear 52 11.1 39 4.1 62 62 SE 9 15 30.3 1026 10 16.0934 0 0
3:55 am 03:55 Clear 52 11.1 40 4.5 64 64 SE 9 15 30.3 1026 10 16.0934 0 0
4:15 am 04:15 Clear 51 10.8 40 4.6 66 66 SE 9 15 30.3 1026 10 16.0934 0 0
4:35 am 04:35 Clear 50 10.2 40 4.7 69 69 SE 9 15 30.27 1025 10 16.0934 0 0
4:55 am 04:55 Clear 50 9.9 41 5 72 72 ESE 9 15 30.27 1025 10 16.0934 0 0
5:15 am 05:15 Clear 49 9.5 41 5 74 74 ESE 9 15 30.27 1025 10 16.0934 0 0
5:35 am 05:35 Clear 48 9 41 5 76 76 ESE 7 11 30.27 1025 10 16.0934 0 0
5:55 am 05:55 Clear 47 8.1 40 4.7 79 79 ESE 6 9 30.33 1027 10 16.0934 0 0
6:15 am 06:15 Clear 44 6.7 40 4.3 85 85 ESE 6 9 30.33 1027 10 16.0934 0 0
6:35 am 06:35 Clear 46 7.5 41 5 84 84 E 6 9 30.33 1027 10 16.0934 0 0
6:55 am 06:55 Clear 44 6.8 40 4.7 87 87 E 5 7 30.33 1027 10 16.0934 0 0
7:15 am 07:15 Clear 44 6.5 40 4.5 87 87 E 7 11 30.33 1027 10 16.0934 0 0
7:35 am 07:35 Partly Cloudy 43 5.9 39 4.1 88 88 ESE 7 11 30.33 1027 10 16.0934 0 0
7:55 am 07:55 Partly Cloudy 43 6.3 41 4.9 91 91 E 7 11 30.33 1027 10 16.0934 0 0
8:15 am 08:15 Partly Cloudy 46 7.6 42 5.7 88 88 ESE 8 13 30.33 1027 10 16.0934 0 0
8:35 am 08:35 Partly Cloudy 47 8.1 43 6.1 87 87 E 8 13 30.33 1027 10 16.0934 0 0
8:55 am 08:55 Mostly Cloudy 49 9.4 43 6.2 81 81 ESE 9 15 30.3 1026 10 16.0934 0 0
9:15 am 09:15 Cloudy 50 9.9 43 6 77 77 ESE 13 20 30.3 1026 10 16.0934 0 0
9:35 am 09:35 Mostly Cloudy 50 10.1 42 5.7 74 74 ESE 9 15 30.3 1026 10 16.0934 0 0
9:55 am 09:55 Cloudy 51 10.8 42 5.7 71 71 ESE 10 17 30.3 1026 10 16.0934 0 0
10:15 am 10:15 Cloudy 52 11.3 42 5.6 68 68 SE 10 17 30.3 1026 10 16.0934 0 0
10:35 am 10:35 Cloudy 53 11.8 41 5.1 64 64 ESE 12 19 30.27 1025 10 16.0934 0 0
10:55 am 10:55 Mostly Cloudy 55 12.6 41 5 60 60 ESE 14 22 30.27 1025 10 16.0934 0 0
11:15 am 11:15 Partly Cloudy 57 13.7 41 4.8 55 55 SE 13 20 30.24 1024 10 16.0934 0 0
11:35 am 11:35 Sunny 58 14.2 40 4.3 52 52 SE 14 22 30.24 1024 10 16.0934 0 0
11:55 am 11:55 Partly Cloudy 59 15 40 4.3 49 49 SSE 15 24 30.21 1023 10 16.0934 0 0
12:15 pm 12:15 Partly Cloudy 60 15.8 40 4.2 46 46 SE 14 22 30.18 1022 10 16.0934 0 0
12:35 pm 12:35 Sunny 61 16 38 3.6 44 44 SE 16 26 30.18 1022 10 16.0934 0 0
12:55 pm 12:55 Sunny 62 16.8 38 3.6 42 42 SE 13 20 30.18 1022 10 16.0934 0 0
1:15 pm 13:15 Partly Cloudy 63 17 38 3.3 40 40 ESE 16 26 30.18 1022 10 16.0934 0 0
1:35 pm 13:35 Partly Cloudy 63 17.1 37 2.9 39 39 ESE 14 22 30.15 1021 10 16.0934 0 0
1:55 pm 13:55 Sunny 63 17.1 37 2.5 38 38 ESE 14 22 30.15 1021 10 16.0934 0 0
2:15 pm 14:15 Sunny 64 17.8 35 1.9 35 35 ESE 17 28 30.12 1020 10 16.0934 0 0
2:35 pm 14:35 Partly Cloudy 62 16.9 35 1.9 37 37 ESE 13 20 30.12 1020 10 16.0934 0 0
2:55 pm 14:55 Partly Cloudy 64 17.7 35 1.7 34 34 ESE 13 20 30.09 1019 10 16.0934 0 0
3:15 pm 15:15 Sunny 65 18.5 35 1.7 33 33 ESE 17 28 30.06 1018 10 16.0934 0 0
3:35 pm 15:35 Partly Cloudy 65 18.2 35 1.7 33 33 ESE 13 20 30.06 1018 10 16.0934 0 0
3:55 pm 15:55 Partly Cloudy 65 18.6 35 1.7 32 32 ESE 12 19 30.06 1018 10 16.0934 0 0
4:15 pm 16:15 Sunny 66 18.7 35 1.5 32 32 ESE 13 20 30.06 1018 10 16.0934 0 0
4:35 pm 16:35 Partly Cloudy 65 18.4 34 1.2 32 32 ESE 12 19 30.06 1018 10 16.0934 0 0
4:55 pm 16:55 Partly Cloudy 65 18.6 35 1.6 32 32 ESE 15 24 30.06 1018 10 16.0934 0 0
5:15 pm 17:15 Sunny 64 17.7 35 1.4 34 34 ESE 15 24 30.06 1018 10 16.0934 0 0
5:35 pm 17:35 Sunny 64 18 34 1.1 32 32 ESE 13 20 30.06 1018 10 16.0934 0 0
5:55 pm 17:55 Sunny 64 17.8 34 0.9 32 32 ESE 16 26 30.06 1018 10 16.0934 0 0
6:15 pm 18:15 Sunny 63 17.1 32 0.2 32 32 ESE 18 30 30.03 1017 10 16.0934 0 0
6:35 pm 18:35 Sunny 62 16.6 33 0.3 33 33 ESE 16 26 30.03 1017 10 16.0934 0 0
6:55 pm 18:55 Sunny 61 16.3 33 0.3 34 34 ESE 15 24 30.06 1018 10 16.0934 0 0
7:15 pm 19:15 Sunny 60 15.5 32 0.1 35 35 ESE 14 22 30.06 1018 10 16.0934 0 0
7:35 pm 19:35 Mostly Cloudy 58 14.6 34 1.1 40 40 ESE 13 20 30.06 1018 10 16.0934 0 0
7:55 pm 19:55 Cloudy 58 14.5 33 0.8 40 40 ESE 12 19 30.06 1018 10 16.0934 0 0
8:15 pm 20:15 Mostly Cloudy 57 13.8 33 0.5 40 40 ESE 12 19 30.06 1018 10 16.0934 0 0
8:35 pm 20:35 Partly Cloudy 55 12.8 33 0.5 43 43 ESE 13 20 30.09 1019 10 16.0934 0 0
8:55 pm 20:55 Clear 53 11.8 34 0.9 47 47 E 9 15 30.12 1020 10 16.0934 0 0
9:15 pm 21:15 Clear 52 11.1 34 1.3 51 51 E 10 17 30.12 1020 10 16.0934 0 0
9:35 pm 21:35 Clear 52 11.2 35 1.8 53 53 ESE 10 17 30.12 1020 10 16.0934 0 0

Powered by AerisWeather